CW8078 Weather Reports


time (UTC)temp
C
wind
direction
speed
KPH
gust
KPH
rain 1hr
cm
rain 24hr
cm
rain mn
cm
humidity
%
barometer
mb
20260905094802 23 157 0.0 0.0 0.00 0.00 0.00 89 1010.4
20260905094302 23 157 0.0 0.0 0.00 0.00 0.00 89 1010.4
20260905093802 23 157 0.0 0.0 0.00 0.00 0.00 89 1010.3
20260905093302 23 157 0.0 0.0 0.00 0.00 0.00 89 1010.3
20260905091802 24 157 0.0 0.0 0.00 0.00 0.00 88 1010.2
20260905091302 24 157 0.0 0.0 0.00 0.00 0.00 88 1010.2
20260905090802 24 157 0.0 0.0 0.00 0.00 0.00 88 1010.2
20260905090302 24 157 0.0 0.0 0.00 0.00 0.00 88 1010.2
20260905084802 24 157 0.0 0.0 0.00 0.00 0.00 87 1010.3
20260905084302 24 157 0.0 0.0 0.00 0.00 0.00 87 1010.2
20260905083802 24 157 0.0 0.0 0.00 0.00 0.00 87 1010.2
20260905083302 24 157 0.0 0.0 0.00 0.00 0.00 87 1010.2
20260905081802 24 157 0.0 0.0 0.00 0.00 0.00 87 1010.1
20260905081302 24 157 0.0 0.0 0.00 0.00 0.00 86 1010.1
20260905080802 24 157 0.0 0.0 0.00 0.00 0.00 86 1010.1
20260905080302 24 157 0.0 0.0 0.00 0.00 0.00 86 1010.1
20260905074802 25 157 0.0 0.0 0.00 0.00 0.00 86 1010.0
20260905074303 25 157 0.0 0.0 0.00 0.00 0.00 86 1010.0
20260905073802 25 157 0.0 0.0 0.00 0.00 0.00 86 1009.9
20260905073302 25 157 0.0 0.0 0.00 0.00 0.00 86 1009.9
20260905071802 25 157 0.0 0.0 0.00 0.00 0.00 85 1010.0
20260905071302 25 157 0.0 0.0 0.00 0.00 0.00 85 1010.1
20260905070802 25 157 0.0 0.0 0.00 0.00 0.00 85 1010.1
20260905064802 25 157 0.0 0.0 0.00 0.00 0.00 84 1010.2
20260905064303 25 157 0.0 0.0 0.00 0.00 0.00 85 1010.2
20260905061802 26 157 0.0 0.0 0.00 0.00 0.00 83 1010.2
20260905061302 26 157 0.0 0.0 0.00 0.00 0.00 83 1010.2
20260905060802 26 157 0.0 0.0 0.00 0.00 0.00 83 1010.2
20260905060303 26 157 0.0 0.0 0.00 0.00 0.00 82 1010.2
20260905054802 26 157 0.0 0.0 0.00 0.00 0.00 82 1010.3
20260905054302 26 157 0.0 0.0 0.00 0.00 0.00 82 1010.3
20260905053802 26 157 0.0 0.0 0.00 0.00 0.00 81 1010.3
20260905053302 26 157 0.0 0.0 0.00 0.00 0.00 81 1010.3
20260905051802 26 157 0.0 0.0 0.00 0.00 0.00 81 1010.2
20260905051302 26 157 0.0 0.0 0.00 0.00 0.00 81 1010.3
20260905050802 26 157 0.0 0.0 0.00 0.00 0.00 80 1010.3
20260905050303 26 157 0.0 0.0 0.00 0.00 0.00 80 1010.3
20260905044802 27 157 0.0 0.0 0.00 0.00 0.00 79 1010.3
20260905044302 27 157 0.0 0.0 0.00 0.00 0.00 79 1010.2
20260905043802 27 157 0.0 0.0 0.00 0.00 0.00 78 1010.3
20260905043302 27 157 0.0 0.0 0.00 0.00 0.00 78 1010.2
20260905041802 27 157 0.0 0.0 0.00 0.00 0.00 77 1010.2
20260905040302 27 157 0.0 0.0 0.00 0.00 0.00 75 1010.3
20260905034802 27 157 0.0 0.0 0.00 0.00 0.00 75 1010.3
20260905034302 27 157 0.0 0.0 0.00 0.00 0.00 75 1010.3
20260905033302 27 157 0.0 0.0 0.00 0.00 0.00 76 1010.4
20260905031803 27 150 0.0 0.0 0.00 0.00 0.00 78 1010.5
20260905031302 27 149 0.0 0.0 0.00 0.00 0.00 79 1010.5
20260905030803 27 149 0.0 0.0 0.00 0.00 0.00 78 1010.5
20260905030302 27 149 0.0 0.0 0.00 0.00 0.00 77 1010.5
20260905024802 28 149 0.0 0.0 0.00 0.00 0.00 77 1010.3
20260905024302 28 149 0.0 0.0 0.00 0.00 0.00 77 1010.3
20260905023802 28 149 0.0 0.0 0.00 0.00 0.00 75 1010.3
20260905021303 28 149 0.0 0.0 0.00 0.00 0.00 72 1010.1
20260905020302 28 149 0.0 0.0 0.00 0.00 0.00 72 1010.0
20260905014303 29 149 0.0 0.0 0.00 0.00 0.00 71 1009.7
20260905013803 29 149 0.0 0.0 0.00 0.00 0.00 71 1009.6
20260905013302 29 149 0.0 0.0 0.00 0.00 0.00 71 1009.5
20260905011802 29 149 0.0 0.0 0.00 0.00 0.00 71 1009.3
20260905011302 29 149 0.0 0.0 0.00 0.00 0.00 71 1009.2
20260905010802 29 149 0.0 0.0 0.00 0.00 0.00 72 1009.3
20260905010302 29 149 0.0 0.0 0.00 0.00 0.00 72 1009.3
20260905004802 30 149 0.0 0.0 0.00 0.00 0.00 71 1009.2
20260905004302 30 149 0.0 0.0 0.00 0.00 0.00 70 1009.1
20260905003302 30 149 0.0 0.0 0.00 0.00 0.00 69 1009.1
20260905001802 31 149 0.0 0.0 0.00 0.00 0.00 68 1009.1
20260905001302 31 149 0.0 0.0 0.00 0.00 0.00 66 1009.1
20260905000802 31 149 0.0 0.0 0.00 0.00 0.00 65 1009.1
20260905000303 31 149 0.0 0.0 0.00 0.00 0.00 64 1009.2
20260904234802 32 149 0.0 0.0 0.00 0.00 0.00 62 1009.2
20260904233802 32 149 0.0 0.0 0.00 0.00 0.00 59 1009.1
20260904233302 32 149 0.0 0.0 0.00 0.00 0.00 60 1009.1
20260904231803 33 149 0.0 0.0 0.00 0.00 0.00 58 1009.2
20260904231302 33 149 0.0 0.0 0.00 0.00 0.00 57 1009.2
20260904230803 33 149 0.0 0.0 0.00 0.00 0.00 56 1009.2
20260904230302 33 149 0.0 0.0 0.00 0.00 0.00 54 1009.3
20260904224802 34 149 0.0 0.0 0.00 0.00 0.00 52 1009.3
20260904224302 35 149 0.0 0.0 0.00 0.00 0.00 51 1009.3
20260904223802 35 149 0.0 0.0 0.00 0.00 0.00 49 1009.3
20260904223303 35 167 0.0 0.0 0.00 0.00 0.00 52 1009.3
20260904221803 35 136 0.0 0.0 0.00 0.00 0.00 50 1009.2
20260904221303 35 136 0.0 0.0 0.00 0.00 0.00 49 1009.3
20260904220303 35 153 0.0 0.0 0.00 0.00 0.00 49 1009.3
20260904214802 36 132 0.0 0.0 0.00 0.00 0.00 46 1009.5
20260904214303 36 132 0.0 0.0 0.00 0.00 0.00 46 1009.5
20260904213803 36 105 0.0 0.0 0.00 0.00 0.00 46 1009.6
20260904211803 36 220 0.0 0.0 0.00 0.00 0.00 45 1009.8
20260904211302 36 220 0.0 0.0 0.00 0.00 0.00 45 1009.8
20260904210802 36 220 0.0 0.0 0.00 0.00 0.00 44 1009.9
20260904210302 36 204 0.0 1.6 0.00 0.00 0.00 43 1010.0
20260904204803 36 163 0.0 0.0 0.00 0.00 0.00 43 1010.1
20260904204303 36 134 0.0 0.0 0.00 0.00 0.00 43 1010.2
20260904203803 36 136 0.0 0.0 0.00 0.00 0.00 43 1010.2
20260904203303 36 146 0.0 0.0 0.00 0.00 0.00 42 1010.3
20260904201803 36 150 0.0 0.0 0.00 0.00 0.00 43 1010.5
20260904201302 37 86 0.0 0.0 0.00 0.00 0.00 44 1010.5
20260904200802 37 192 0.0 0.0 0.00 0.00 0.00 43 1010.6
20260904200302 37 165 0.0 0.0 0.00 0.00 0.00 43 1010.7
20260904194802 37 175 0.0 0.0 0.00 0.00 0.00 44 1011.0
20260904193802 37 119 0.0 0.0 0.00 0.00 0.00 43 1010.9
20260904191803 37 205 0.0 0.0 0.00 0.00 0.00 43 1011.1
20260904190802 37 326 0.0 0.0 0.00 0.00 0.00 45 1011.1
20260904190302 37 248 0.0 0.0 0.00 0.00 0.00 47 1011.2
20260904184803 36 0 0.0 0.0 0.00 0.00 0.00 46 1011.3
20260904184303 36 116 0.0 0.0 0.00 0.00 0.00 47 1011.4
20260904183803 36 94 0.0 0.0 0.00 0.00 0.00 50 1011.4
20260904183302 36 6 0.0 0.0 0.00 0.00 0.00 47 1011.5
20260904181803 36 179 0.0 0.0 0.00 0.00 0.00 45 1011.6
20260904180803 37 232 0.0 0.0 0.00 0.00 0.00 47 1011.7
20260904180303 36 225 0.0 0.0 0.00 0.00 0.00 48 1011.8
20260904174802 36 142 0.0 0.0 0.00 0.00 0.00 50 1012.0
20260904174302 36 171 0.0 0.0 0.00 0.00 0.00 49 1012.0
20260904173802 36 329 0.0 0.0 0.00 0.00 0.00 52 1012.0
20260904173303 36 329 0.0 0.0 0.00 0.00 0.00 50 1012.1
20260904171803 35 229 0.0 0.0 0.00 0.00 0.00 52 1012.3
20260904171303 35 192 0.0 0.0 0.00 0.00 0.00 50 1012.3
20260904170802 35 192 0.0 0.0 0.00 0.00 0.00 54 1012.4
20260904170305 35 150 0.0 1.6 0.00 0.00 0.00 53 1012.4
20260904164802 33 224 0.0 0.0 0.00 0.00 0.00 57 1012.5
20260904164302 33 231 0.0 0.0 0.00 0.00 0.00 59 1012.6
20260904163803 33 182 0.0 0.0 0.00 0.00 0.00 58 1012.6
20260904163302 33 137 0.0 0.0 0.00 0.00 0.00 61 1012.6
20260904161802 32 175 0.0 0.0 0.00 0.00 0.00 62 1012.7
20260904161303 32 175 0.0 1.6 0.00 0.00 0.00 61 1012.8
20260904160803 32 175 0.0 0.0 0.00 0.00 0.00 60 1012.7
20260904160302 32 175 0.0 0.0 0.00 0.00 0.00 63 1012.7
20260904154803 31 175 0.0 0.0 0.00 0.00 0.00 65 1012.7
20260904154302 31 175 0.0 0.0 0.00 0.00 0.00 66 1012.7
20260904153803 31 175 0.0 0.0 0.00 0.00 0.00 67 1012.7
20260904153302 31 175 0.0 0.0 0.00 0.00 0.00 68 1012.7
20260904151802 30 136 0.0 0.0 0.00 0.00 0.00 68 1012.7
20260904151303 30 121 0.0 0.0 0.00 0.00 0.00 68 1012.7
20260904150303 30 121 0.0 0.0 0.00 0.00 0.00 70 1012.6
20260904144303 28 163 0.0 0.0 0.00 0.00 0.00 72 1012.5
20260904143802 28 163 0.0 0.0 0.00 0.00 0.00 73 1012.4
20260904143303 28 163 0.0 0.0 0.00 0.00 0.00 74 1012.4
20260904141802 28 163 0.0 0.0 0.00 0.00 0.00 76 1012.3
20260904140303 27 129 0.0 0.0 0.00 0.00 0.00 79 1012.3
20260904134802 26 129 0.0 0.0 0.00 0.00 0.00 81 1012.3
20260904134302 26 129 0.0 0.0 0.00 0.00 0.00 82 1012.3
20260904133803 26 129 0.0 0.0 0.00 0.00 0.00 83 1012.4
20260904133303 25 129 0.0 0.0 0.00 0.00 0.00 84 1012.3
20260904131303 23 129 0.0 0.0 0.00 0.00 0.00 89 1012.3
20260904130803 23 129 0.0 0.0 0.00 0.00 0.00 89 1012.2
20260904130302 23 129 0.0 0.0 0.00 0.00 0.00 90 1012.2
20260904124302 22 129 0.0 0.0 0.00 0.00 0.00 90 1012.1
20260904123802 22 129 0.0 0.0 0.00 0.00 0.00 90 1012.1
20260904123303 22 129 0.0 0.0 0.00 0.00 0.00 89 1012.0
20260904120803 22 129 0.0 0.0 0.00 0.00 0.00 89 1011.8
20260904120303 22 129 0.0 0.0 0.00 0.00 0.00 88 1011.8
20260904114303 23 129 0.0 0.0 0.00 0.00 0.00 88 1011.6
20260904113303 23 129 0.0 0.0 0.00 0.00 0.00 87 1011.5
20260904111802 23 129 0.0 0.0 0.00 0.00 0.00 86 1011.4
20260904111303 23 129 0.0 0.0 0.00 0.00 0.00 86 1011.4
20260904110803 23 129 0.0 0.0 0.00 0.00 0.00 86 1011.3
20260904110303 23 129 0.0 0.0 0.00 0.00 0.00 85 1011.3
20260904104802 23 129 0.0 0.0 0.00 0.00 0.00 85 1011.1
20260904104302 23 129 0.0 0.0 0.00 0.00 0.00 86 1011.1
20260904103802 23 129 0.0 0.0 0.00 0.00 0.00 87 1011.1
20260904101303 23 129 0.0 0.0 0.00 0.00 0.00 87 1011.0
20260904100802 23 129 0.0 0.0 0.00 0.00 0.00 88 1011.0
20260904100303 23 129 0.0 0.0 0.00 0.00 0.00 88 1011.0